EWG2823 LIMC-EDDS

Flight info

Callsign EWG2823
Flight time 0h 37m
Altitude 24000
Route PEPAG DCT ABESI N851 UTAVO DCT SOPER N851 ROMIR T125 REUTL REUTL1W
Aircraft A320/M-SDE3FGHIRWY/LB1

Departure

Time 2026-05-07 11:20
Airport Milan Malpensa International Airport (LIMC)

Arrival

Time 2026-05-07 11:57
Airport Stuttgart Airport (EDDS)
Time Latitude Longitude Altitude Speed Heading
2026-05-07 11:04 45.62377 8.71647 741 ft 0 kts 349°
2026-05-07 11:12 45.62355 8.71652 739 ft 4 kts 353°
2026-05-07 11:12 45.62329 8.71654 738 ft 4 kts
2026-05-07 11:12 45.62305 8.71643 740 ft 4 kts 52°
2026-05-07 11:13 45.62300 8.71631 741 ft 0 kts 79°
2026-05-07 11:15 45.62307 8.71687 740 ft 7 kts 80°
2026-05-07 11:15 45.62315 8.71752 741 ft 6 kts 79°
2026-05-07 11:15 45.62325 8.71827 740 ft 14 kts 79°
2026-05-07 11:15 45.62348 8.71998 741 ft 18 kts 78°
2026-05-07 11:16 45.62368 8.72181 741 ft 18 kts 103°
2026-05-07 11:16 45.62257 8.72250 740 ft 19 kts 160°
2026-05-07 11:16 45.62234 8.72411 741 ft 19 kts 79°
2026-05-07 11:16 45.62260 8.72601 741 ft 20 kts 78°
2026-05-07 11:17 45.62288 8.72808 741 ft 22 kts 79°
2026-05-07 11:17 45.62302 8.72990 741 ft 17 kts 108°
2026-05-07 11:17 45.62198 8.73048 741 ft 18 kts 169°
2026-05-07 11:17 45.62069 8.73082 741 ft 20 kts 169°
2026-05-07 11:18 45.61925 8.73122 741 ft 22 kts 169°
2026-05-07 11:18 45.61769 8.73174 740 ft 24 kts 155°
2026-05-07 11:18 45.61676 8.73341 741 ft 18 kts 123°
2026-05-07 11:18 45.61602 8.73502 741 ft 21 kts 120°
2026-05-07 11:19 45.61606 8.73704 739 ft 22 kts 46°
2026-05-07 11:19 45.61780 8.73692 740 ft 42 kts 349°
2026-05-07 11:19 45.62333 8.73539 743 ft 115 kts 349°
2026-05-07 11:19 45.63320 8.73264 752 ft 169 kts 348°
2026-05-07 11:20 45.64483 8.72978 1498 ft 169 kts 359°
2026-05-07 11:20 45.65574 8.73525 2233 ft 174 kts 41°
2026-05-07 11:20 45.66213 8.75079 2627 ft 195 kts 75°
2026-05-07 11:20 45.66568 8.77073 2981 ft 220 kts 84°
2026-05-07 11:21 45.66450 8.79311 3708 ft 230 kts 97°
2026-05-07 11:21 45.66463 8.81697 4295 ft 254 kts 75°
2026-05-07 11:21 45.67369 8.83917 5033 ft 267 kts 42°
2026-05-07 11:21 45.68990 8.85235 5986 ft 272 kts 21°
2026-05-07 11:22 45.70709 8.86344 6953 ft 276 kts 26°
2026-05-07 11:22 45.72446 8.87634 7918 ft 280 kts 27°
2026-05-07 11:22 45.74146 8.88959 8863 ft 284 kts 28°
2026-05-07 11:22 45.75920 8.90345 9821 ft 289 kts 27°
2026-05-07 11:23 45.77733 8.91738 10420 ft 306 kts 27°
2026-05-07 11:23 45.79667 8.93198 10761 ft 330 kts 26°
2026-05-07 11:23 45.81775 8.94776 11133 ft 350 kts 26°
2026-05-07 11:23 45.83990 8.96427 11829 ft 358 kts 26°
2026-05-07 11:24 45.86192 8.98059 12613 ft 363 kts 26°
2026-05-07 11:24 45.88455 8.99734 13418 ft 368 kts 26°
2026-05-07 11:24 45.90742 9.01430 14162 ft 373 kts 26°
2026-05-07 11:24 45.93058 9.03153 14873 ft 377 kts 26°
2026-05-07 11:25 45.95414 9.04852 15564 ft 380 kts 21°
2026-05-07 11:25 45.97967 9.06063 16252 ft 382 kts 11°
2026-05-07 11:25 46.00567 9.06564 16926 ft 383 kts 360°
2026-05-07 11:25 46.03264 9.06361 17618 ft 384 kts 351°
2026-05-07 11:26 46.05930 9.05908 18286 ft 388 kts 351°
2026-05-07 11:26 46.08622 9.05461 18871 ft 391 kts 351°
2026-05-07 11:26 46.11300 9.05023 19457 ft 394 kts 351°
2026-05-07 11:26 46.14038 9.04580 20057 ft 397 kts 352°
2026-05-07 11:27 46.16789 9.04138 20638 ft 400 kts 352°
2026-05-07 11:27 46.19572 9.03732 21222 ft 403 kts 353°
2026-05-07 11:27 46.22370 9.03361 21784 ft 406 kts 353°
2026-05-07 11:27 46.25232 9.02998 22362 ft 408 kts 353°
2026-05-07 11:28 46.28032 9.02645 22910 ft 411 kts 353°
2026-05-07 11:28 46.30931 9.02275 23478 ft 414 kts 353°
2026-05-07 11:28 46.33778 9.01905 23871 ft 417 kts 353°
2026-05-07 11:28 46.36671 9.01519 23987 ft 419 kts 353°
2026-05-07 11:29 46.39614 9.01118 24013 ft 430 kts 353°
2026-05-07 11:29 46.42606 9.00708 24011 ft 433 kts 353°
2026-05-07 11:29 46.45616 9.00301 24018 ft 434 kts 353°
2026-05-07 11:29 46.48620 8.99896 24019 ft 434 kts 353°
2026-05-07 11:30 46.51630 8.99494 24015 ft 434 kts 353°
2026-05-07 11:30 46.54636 8.99096 24021 ft 434 kts 353°
2026-05-07 11:30 46.57643 8.98691 24018 ft 434 kts 353°
2026-05-07 11:30 46.60656 8.98287 24016 ft 434 kts 353°
2026-05-07 11:31 46.63661 8.97885 24024 ft 434 kts 353°
2026-05-07 11:31 46.66661 8.97482 24021 ft 433 kts 353°
2026-05-07 11:31 46.69661 8.97077 24019 ft 433 kts 353°
2026-05-07 11:31 46.72652 8.96670 24023 ft 433 kts 353°
2026-05-07 11:32 46.78654 8.95849 24012 ft 433 kts 353°
2026-05-07 11:32 46.81654 8.95439 24013 ft 434 kts 353°
2026-05-07 11:32 46.84664 8.95029 24015 ft 433 kts 353°
2026-05-07 11:33 46.87663 8.94622 24020 ft 433 kts 353°
2026-05-07 11:33 46.90666 8.94211 24023 ft 434 kts 353°
2026-05-07 11:33 46.93668 8.93798 24020 ft 433 kts 353°
2026-05-07 11:33 46.96669 8.93384 24030 ft 434 kts 353°
2026-05-07 11:34 46.99678 8.92971 24028 ft 433 kts 353°
2026-05-07 11:34 47.02679 8.92555 24030 ft 433 kts 353°
2026-05-07 11:34 47.05683 8.92138 24038 ft 434 kts 353°
2026-05-07 11:34 47.08686 8.91726 24035 ft 434 kts 353°
2026-05-07 11:35 47.11695 8.91316 24038 ft 434 kts 353°
2026-05-07 11:35 47.14700 8.90904 24040 ft 434 kts 353°
2026-05-07 11:35 47.17708 8.90488 24041 ft 434 kts 353°
2026-05-07 11:35 47.20717 8.90070 24043 ft 435 kts 353°
2026-05-07 11:36 47.23691 8.89657 24046 ft 434 kts 353°
2026-05-07 11:36 47.26711 8.89366 24053 ft 436 kts 358°
2026-05-07 11:36 47.29738 8.89724 24047 ft 438 kts
2026-05-07 11:36 47.32701 8.90806 24045 ft 440 kts 17°
2026-05-07 11:37 47.35589 8.92301 24037 ft 440 kts 17°
2026-05-07 11:37 47.38479 8.93797 24043 ft 440 kts 17°
2026-05-07 11:37 47.41372 8.95288 24042 ft 440 kts 17°
2026-05-07 11:37 47.44302 8.96791 24028 ft 440 kts 17°
2026-05-07 11:38 47.47159 8.98256 24041 ft 440 kts 17°
2026-05-07 11:38 47.50055 8.99746 24036 ft 441 kts 18°
2026-05-07 11:38 47.52951 9.01243 24037 ft 441 kts 17°
2026-05-07 11:38 47.55846 9.02743 24035 ft 441 kts 17°
2026-05-07 11:39 47.58744 9.04245 24031 ft 441 kts 17°
2026-05-07 11:39 47.61641 9.05745 24034 ft 441 kts 17°
2026-05-07 11:39 47.64537 9.07247 24034 ft 441 kts 17°
2026-05-07 11:39 47.67379 9.08969 24029 ft 442 kts 25°
2026-05-07 11:40 47.70003 9.11368 24031 ft 444 kts 35°
2026-05-07 11:40 47.72340 9.14385 23805 ft 447 kts 45°
2026-05-07 11:40 47.74298 9.17965 23567 ft 448 kts 55°
2026-05-07 11:40 47.75987 9.21852 23283 ft 446 kts 52°
2026-05-07 11:41 47.78107 9.25162 22999 ft 442 kts 38°
2026-05-07 11:41 47.80658 9.27667 22730 ft 438 kts 26°
2026-05-07 11:41 47.83457 9.29405 22456 ft 434 kts 15°
2026-05-07 11:41 47.86387 9.30405 22192 ft 430 kts
2026-05-07 11:42 47.89346 9.30752 21745 ft 424 kts
2026-05-07 11:42 47.92274 9.30999 21027 ft 420 kts
2026-05-07 11:42 47.95178 9.31227 20361 ft 415 kts
2026-05-07 11:42 47.98049 9.31441 19709 ft 410 kts
2026-05-07 11:43 48.00886 9.31651 19086 ft 406 kts
2026-05-07 11:43 48.03694 9.31858 18496 ft 401 kts
2026-05-07 11:43 48.06469 9.32067 17879 ft 397 kts
2026-05-07 11:43 48.09208 9.32277 17316 ft 391 kts
2026-05-07 11:44 48.11911 9.32485 16773 ft 386 kts
2026-05-07 11:44 48.14579 9.32687 16250 ft 381 kts
2026-05-07 11:44 48.17219 9.32900 15704 ft 378 kts
2026-05-07 11:44 48.19833 9.33222 15162 ft 376 kts
2026-05-07 11:45 48.22399 9.33633 14602 ft 375 kts
2026-05-07 11:45 48.24993 9.34096 14034 ft 375 kts
2026-05-07 11:45 48.27584 9.34565 13391 ft 375 kts
2026-05-07 11:45 48.30163 9.35019 12761 ft 373 kts
2026-05-07 11:46 48.32733 9.35455 12122 ft 371 kts
2026-05-07 11:46 48.35294 9.35895 11458 ft 369 kts
2026-05-07 11:46 48.37780 9.36826 10927 ft 366 kts 18°
2026-05-07 11:46 48.40071 9.38315 10794 ft 350 kts 22°
2026-05-07 11:47 48.42246 9.39793 10669 ft 335 kts 22°
2026-05-07 11:47 48.44334 9.41203 10542 ft 322 kts 22°
2026-05-07 11:47 48.46345 9.42556 10421 ft 311 kts 22°
2026-05-07 11:47 48.48285 9.43870 10252 ft 302 kts 22°
2026-05-07 11:48 48.50186 9.45158 9987 ft 297 kts 22°
2026-05-07 11:48 48.52067 9.46433 9851 ft 296 kts 21°
2026-05-07 11:48 48.53942 9.47703 9698 ft 295 kts 22°
2026-05-07 11:48 48.55827 9.48980 9233 ft 298 kts 21°
2026-05-07 11:49 48.57703 9.50254 8906 ft 293 kts 21°
2026-05-07 11:49 48.59547 9.51509 8359 ft 289 kts 22°
2026-05-07 11:49 48.61378 9.52759 7654 ft 287 kts 22°
2026-05-07 11:49 48.63176 9.53990 7093 ft 282 kts 22°
2026-05-07 11:50 48.64953 9.55209 6571 ft 278 kts 22°
2026-05-07 11:50 48.66717 9.56406 6055 ft 278 kts 19°
2026-05-07 11:50 48.68570 9.57122 5627 ft 269 kts
2026-05-07 11:50 48.70370 9.56935 5016 ft 251 kts 340°
2026-05-07 11:51 48.71833 9.55899 4922 ft 219 kts 322°
2026-05-07 11:51 48.72901 9.54393 4915 ft 202 kts 306°
2026-05-07 11:51 48.73596 9.52623 4860 ft 191 kts 291°
2026-05-07 11:51 48.73937 9.50733 4720 ft 185 kts 277°
2026-05-07 11:52 48.73941 9.48832 4511 ft 178 kts 263°
2026-05-07 11:52 48.73652 9.47026 4275 ft 175 kts 255°
2026-05-07 11:52 48.73326 9.45276 4040 ft 171 kts 255°
2026-05-07 11:52 48.73005 9.43558 3821 ft 168 kts 255°
2026-05-07 11:53 48.72691 9.41878 3584 ft 164 kts 256°
2026-05-07 11:53 48.72486 9.40786 3458 ft 158 kts 256°
2026-05-07 11:53 48.72205 9.39289 3249 ft 140 kts 257°
2026-05-07 11:53 48.71947 9.37911 3059 ft 135 kts 256°
2026-05-07 11:54 48.71694 9.36565 2882 ft 131 kts 257°
2026-05-07 11:54 48.71530 9.35692 2711 ft 129 kts 258°
2026-05-07 11:54 48.71287 9.34393 2599 ft 128 kts 258°
2026-05-07 11:54 48.71043 9.33095 2424 ft 128 kts 258°
2026-05-07 11:55 48.70798 9.31793 2245 ft 128 kts 257°
2026-05-07 11:55 48.70554 9.30495 2064 ft 129 kts 258°
2026-05-07 11:55 48.70306 9.29182 1885 ft 131 kts 258°
2026-05-07 11:55 48.70056 9.27854 1701 ft 133 kts 256°
2026-05-07 11:56 48.69802 9.26510 1529 ft 133 kts 256°
2026-05-07 11:56 48.69550 9.25165 1357 ft 132 kts 257°
2026-05-07 11:56 48.69300 9.23839 1211 ft 126 kts 257°
2026-05-07 11:56 48.69096 9.22769 1222 ft 71 kts 254°
2026-05-07 11:57 48.69009 9.22298 1233 ft 39 kts 255°
2026-05-07 11:57 48.68943 9.21937 1248 ft 32 kts 260°
2026-05-07 11:57 48.68955 9.21672 1250 ft 23 kts 283°
2026-05-07 11:57 48.68991 9.21447 1265 ft 21 kts 284°
2026-05-07 11:58 48.69024 9.21242 1267 ft 19 kts 283°
2026-05-07 11:58 48.69031 9.21053 1276 ft 18 kts 256°
2026-05-07 11:58 48.68997 9.20874 1274 ft 18 kts 253°
2026-05-07 11:58 48.68964 9.20696 1278 ft 18 kts 254°
2026-05-07 11:59 48.69013 9.20548 1284 ft 17 kts 314°
2026-05-07 11:59 48.69056 9.20402 1290 ft 15 kts 255°
2026-05-07 11:59 48.69032 9.20262 1296 ft 13 kts 253°
2026-05-07 11:59 48.69007 9.20138 1300 ft 11 kts 253°
2026-05-07 12:00 48.68979 9.20026 1303 ft 14 kts 238°
2026-05-07 12:00 48.68922 9.19887 1304 ft 17 kts 238°
2026-05-07 12:00 48.68870 9.19724 1307 ft 17 kts 255°
2026-05-07 12:00 48.68845 9.19585 1310 ft 10 kts 255°
2026-05-07 12:01 48.68858 9.19539 1312 ft 3 kts 335°
2026-05-07 12:01 48.68887 9.19525 1313 ft 4 kts 343°
2026-05-07 12:01 48.68909 9.19515 1315 ft 9 kts 343°
2026-05-07 12:01 48.68919 9.19511 1315 ft 0 kts 343°